Starlink 5059

operational
NORAD ID: 53912 Int'l Des: 2022-119 Owner: SPXS Country: US Constellation: starlink
LEOCIRCULAR

About Starlink 5059

Description loading...

Live Position

Loading 3D Globe...

Upcoming Passes

Altitude History

Altitude vs Time

uPlot chart will show altitude changes over time

Two-Line Element Set

1 53912U 22119AC 26062.15550273 -.00000314 00000-0 -16072-5 0 9990
2 53912 53.2197 343.0959 0001429 90.8564 269.2592 15.08835340190844
Epoch: Mar 3, 2026 • Age: 17 hours

Current Status

Altitude 552.1 km
Velocity 7.59 km/s
Sub-Earth Point -36.33°S, 130.36°E
Launch Date Sep 24, 2022
Age 3.4 years
Type internet

Technical Details

Classification Payload
Mass 305.00 kg
Dry Mass 290.00 kg
Total Mass 305.00 kg
Length 0.20 m
Diameter 2.80 m
Span 9.00 m
Shape Box + pan
Manufacturer SPXS
Bus Type Starlink
Phase Status In Orbit
Owner/State SPXS/US

Large Constellations

Loading constellations...